THORAD DELTA 1 DEB, 9985

Orbit data source: Space-Track

THORAD DELTA 1 DEB, 9985 is space debris in SSO originally from a launch on Fri, 15 Nov 1974 UTC launched from the Air Force Western Test Range (AFWTR). Debris objects in space refer to the collection of defunct objects orbiting the Earth. Examples of debris include non-operational satellites, rocket bodies, and fragments generated from explosions, collisions, or faulty payload assembly.

Loading next visibility...
Identifier
9985, 1974-089EC
Orbit
SSO
Country
Flag of USUS
Related business
Manufacturer
Unknown
Mission
Spacecraft
Bus & Motor
Unknown
Mass
Unknown
Launch date (UTC)
1974-11-15 (51 years ago)
Launch vehicle
Unknown
Launch site
Air Force Western Test Range (AFWTR)
Object type
Payload
Rocket body
Debris
Shape & HBR
Unknown shape, 0.1 m
Radar Cross Section
Small (<0.1 m²)

Expand to show TLE details & history
Last TLE update: 9 hours ago

TLE from 9 hours ago
0 THORAD DELTA 1 DEB
1 09985U 74089EC  26072.87148891  .00000014  00000-0  39755-3 0  9999
2 09985 101.9834  37.1630 0048202 207.4189 181.9171 12.49084448340588
Epoch: 2026-03-13T20:54Z
TLE epoch observation values (Epoch: 2026-03-13T20:54:56.641Z)
Latitude
28.66252°
Longitude
-94.7039°
Altitude
1,509.376 km
Speed
7.095 km/s
True Right ascension
02h 02m 07s
True Declination
28° 31' 54"
Sunlit
Object was in daylight at epoch
Visualization orbit readout
Latitude
Unknown
Longitude
Unknown
Altitude
Unknown
Speed
Unknown
Apparent Right ascension
Unknown
Apparent Declination
Unknown
Sunlit
N/A
Visualization observer readout
Local Sidereal Time
10:20:04
Azimuth
Unknown
Elevation
Unknown
Doppler factor
Unknown
Orbital elements
Apogee altitude
1,503.698 km
Perigee altitude
1,428.079 km
Semi-major axis
7,844.026 km
Eccentricity
0.00482
Inclination
101.9834°
RAAN
37.163°
Arg. of periapsis
207.4189°
True anomaly
181.89873°
Mean anomaly
181.9171°
Eccentric anomaly
181.90791°
Mean motion
3.12417 °/min
Orbital period
115.23 mins
BSTAR
0.00039755
Loading maneuver chart data...
Computing Atmospheric mass density...

Documentation

Showing up to 5 results
|